Location: Unspecified
(42.3650°N, 71.1030°W)
Time: 22:05:03
(UTC+00:00)

Courier 1B Rocket - Pass Details

Date: 30 June 2024
Orbit: 920 x 1201 km, 28.2° (Epoch: 17 July)

Event Time Altitude Azimuth Distance (km) Brightness Sun altitude
Exits shadow 06:55:32 20° 171° (S) 2,053 6.3 -18.2°
Drops below altitude 10° 06:59:03 10° 139° (SE) 2,735 7.2 -17.9°
Sets 07:02:26 0° 125° (SE) 3,734 8.0 -17.5°
